Location: La Pernelle
(49.6188°N, 1.2999°W)
Time: 03:07:44
(UTC+00:00)

NOSS 3-2 (A) - Pass Details

Date: 21 October 2021
Orbit: 771 x 1437 km, 63.4° (Epoch: 21 November)

Event Time Altitude Azimuth Distance (km) Brightness Sun altitude
Rises 18:27:59 0° 298° (WNW) 3,631 7.6 -14.5°
Reaches altitude 10° 18:30:52 10° 311° (NW) 2,786 6.6 -15.0°
Maximum altitude 18:36:23 27° 8° (N) 2,008 5.1 -15.9°
Enters shadow 18:41:10 15° 55° (NE) 2,790 5.4 -16.6°
